036  
ASUS41 KOKX 201313  
RWROKX  
 
REGIONAL WEATHER ROUNDUP  
NATIONAL WEATHER SERVICE NEW YORK NY  
900 AM EDT SUN OCT 20 2019  
 
NOTE: "FAIR" INDICATES FEW OR NO CLOUDS BELOW 12,000 FEET WITH NO  
SIGNIFICANT WEATHER AND/OR S TO VISIBILITY
.  
 
NYZ071-072-176-178-NJZ106-104-201400-  
NEW YORK CITY METRO AREA  
 
CITY SKY/WX TMP DP RH WIND PRES REMARKS
 
CENTRAL PARK PTSUNNY 54 48 80 NE3 30.08R  
BRONX LEHMAN C N/A 52 48 87 NE2 N/A  
LAGUARDIA ARPT PTSUNNY 53 49 86 NE6 30.06R  
QUEENS COLLEGE N/A 52 45 76 NE3 N/A  
KENNEDY INTL PTSUNNY 51 48 89 E5 30.07R  
BREEZY POINT NOT AVBL  
BROOKLYN COLL N/A 55 45 67 NE3 N/A  
STATEN ISLAND N/A 50 45 81 N3 N/A  
NEWARK/LIBERTY CLOUDY 49 44 83 N3 30.06R  
TETERBORO CLOUDY 48 27 44 N3 30.06R  

 
 
NYZ177-179-078>081-201400-  
LONG ISLAND NEW YORK  
 
CITY SKY/WX TMP DP RH WIND PRES REMARKS
 
JONES BEACH N/A 52 N/A N/A E6 N/A  
WANTAGH N/A 52 46 82 NE3 N/A  
HEMPSTEAD N/A 52 46 82 E1 30.10R  
MATINECOCK PT N/A 54 N/A N/A E6 N/A  
FARMINGDALE FAIR 51 45 79 CALM 30.07R  
MACARTHUR/ISP PTSUNNY 51 49 92 CALM 30.06R  
STONY BROOK N/A 55 43 62 E1 N/A  
SHIRLEY FAIR 48 44 86 CALM 30.07R  
MT SINAI HARB N/A N/A N/A N/A MISG N/A  
WESTHAMPTON SUNNY 46 45 93 CALM 30.07  
EAST HAMPTON FAIR 48 45 90 CALM 30.07R  
SOUTHOLD N/A 52 50 93 E2 N/A  
MONTAUK N/A 54 52 93 CALM 30.09R  

 
 
NYZ052-065-067-201400-  
HUDSON VALLEY  
 
CITY SKY/WX TMP DP RH WIND PRES REMARKS
 
WHITE PLAINS FAIR 49 46 90 E5 30.05R  
LARCHMONT HARB N/A 48 N/A N/A N3 N/A  
CROTON ON HUDS N/A 45 N/A N/A NE2 N/A  
SOMERS N/A 43 41 93 E2 N/A  
BREWSTER N/A 41 41 100 N3 N/A  
NEWBURGH PTSUNNY 41 41 100 VRB5 30.06R FOG  
MONTGOMERY PTSUNNY 40 38 93 CALM 30.06R  
OTISVILLE N/A 39 39 100 CALM N/A  
WARWICK N/A 41 41 100 W2 N/A  
SUFFERN N/A 48 45 87 N1 N/A  
POUGHKEEPSIE FAIR 41 37 86 CALM 30.06S  
ALBANY PTSUNNY 40 37 89 SW3 30.06R  

 
 
NJZ001-105-106-008-010-013-015-019>022-104-201400-  
NEW JERSEY  
 
CITY SKY/WX TMP DP RH WIND PRES REMARKS
 
NEWARK/LIBERTY CLOUDY 49 44 83 N3 30.06R  
TETERBORO CLOUDY 48 27 44 N3 30.06R  
CALDWELL CLOUDY 46 42 86 CALM 30.07R  
SOMERVILLE FAIR 44 41 89 CALM 30.05R  
LINDEN PTSUNNY 49 42 77 CALM 30.06R  
PERTH AMBOY N/A 48 N/A N/A N2 N/A  
SUSSEX PTSUNNY 40 38 93 CALM 30.05R  
ANDOVER N/A 44 41 89 CALM 30.05R  
TRENTON FAIR 47 45 93 NE5 30.03S  
MILLVILLE PTSUNNY 53 48 83 E3 30.01S  
ATLANTIC CITY FAIR 57 53 86 E3 30.02R  
WRIGHTSTOWN FAIR 48 46 94 CALM 30.03  
TOMS RIVER NOT AVBL  
BELMAR NOT AVBL  

 
 
PAZ047>061-062-071-201400-  
EASTERN PENNSYLVANIA  
 
CITY SKY/WX TMP DP RH WIND PRES REMARKS
 
PHILADELPHIA LGT RAIN 53 47 79 NE5 30.03R  
ALLENTOWN NOT AVBL  
SCRANTON NOT AVBL  

 
 
CTZ002-004>006-009-010-012-RIZ004-006-007-MAZ004-011-015-201400-  
SOUTHERN NEW ENGLAND  
 
IN CT  
 
CITY SKY/WX TMP DP RH WIND PRES REMARKS
 
BRADLEY INTL PTSUNNY 43 36 76 CALM 30.09R  
HARTFORD FAIR 41 37 86 VRB3 30.10R  
DANBURY FAIR 40 40 100 CALM 30.08R FOG  
WTRBURY/OXFORD FAIR 43 38 82 CALM 30.08R  
NORWALK HARBOR N/A 43 N/A N/A N8 N/A  
BRIDGEPORT FAIR 46 41 82 N8 30.07R  
MERIDEN FAIR 41 38 89 CALM 30.10R  
NEW HAVEN FAIR 46 40 79 N9 30.08R  
CHESTER FAIR 43 41 93 CALM 30.08R  
GROTON FAIR 44 40 85 CALM 30.09R  
WILLIMANTIC FAIR 37 35 92 CALM 30.11R  
 
IN RI  
 
CITY SKY/WX TMP DP RH WIND PRES REMARKS
 
PROVIDENCE PTSUNNY 44 39 82 CALM 30.10R  
BLOCK ISLAND FAIR 54 48 80 E3 30.09R  
WESTERLY FAIR 45 41 86 NE3 30.09R  
 
IN MA  
 
CITY SKY/WX TMP DP RH WIND PRES REMARKS
 
BOSTON PTSUNNY 48 39 71 CALM 30.09R  
WORCESTER FAIR 44 34 67 NE6 30.07R  
WESTFIELD FAIR 39 35 86 N3 30.09R  
PROVINCETOWN FAIR 52 50 93 CALM N/A  
NANTUCKET FAIR 57 52 83 SE7 30.09R  

 
 
ANZ330-335-338-340-345-350-353-355-201400-  
COASTAL MARINE OBSERVATIONS  
 
 
STATION/POSITION TIME SKY/WX TEMP WIND PRES VSBY WAVE
 
AIR SEA DIR/SP/G HT/PER  
(UTC) (F) (DEG/KT/KT) (MB) (MI) (FT/S)  
NY HARB ENTRANCE 1250 60 62 130/ 12/ 14 1017.1 1/14  
20 S FIRE ISLAND 1250 60 62 140/ 10/ 10 1017.8 1/ 9  
GREAT SOUTH BAY 1230 51 55 30/ 4/ 6 N/A  
23 SSW MONTAUK P NOT AVBL  
15 E BARNEGAT LI 1300 63 N/A 2/14  
HUDSON CANYON 1250 61 63 130/ 6/ 8 1018.6 1/10  
KINGS POINT 1230 51 61 60/ 2/ 3 1018.1  
EXECUTION ROCKS 1245 53 32 30/ 8/ 10 N/A  
WESTERN LI SOUND 1245 54 40/ 10/ 14 N/A 0  
CENTRAL LI SOUND NOT AVBL  
ROBBINS REEF 1230 49 300/ 5/ 7 1017.4  

 
 
>>>>>>>>>>>>>>>>>>>>>>>>>>>> KEY <<<<<<<<<<<<<<<<<<<<<<<<<<<  
> <  
> SKY/WX - SKY CONDITION/PRESENT WEATHER <  
> TMP - TEMPERATURE IN FAHRENHEIT <  
> DP - DEW POINT IN FAHRENHEIT <  
> RH - RELATIVE HUMIDITY IN PERCENT <  
> WIND - DIRECTION (FROM) AND SPEED IN MPH <  
> PRES - MEAN SEA LEVEL PRESSURE (INCHES OF HG) <  
> WCI - WIND CHILL INDEX <  
> VSB - VISIBILITY IN MILES <  
> HX - HEAT INDEX <  
> TC - TEMPERATURE IN CELSIUS <  
> VRB - VARIABLE WIND DIRECTION <  
> <  
>>>>>>>>>>>>>>>>>>>>>>>>>>>> KEY <<<<<<<<<<<<<<<<<<<<<<<<<<<  
 
 
CLICK HERE TO GO TO PREVIOUS BULLETINS.

The Nexlab NY Page
The Nexlab NJ Page
The Nexlab CT Page Main Text Page